User: anonymous   Login
Location: Budapest
(47.4979°N, 19.0402°E)
Time: 08:49:10
(UTC+01:00)
Language:

BUGSAT 1 - Orbit

View from above orbital plane
View from above orbital plane
View from above satellite
View from above satellite

Ground track
Ground track

The orbit data is extracted from the following two-line orbital elements,

1 40014U 14033E   18055.72674558  .00000045  00000-0  97033-5 0  9999
2 40014  97.9698 349.2484 0030524 206.2522 153.7144 14.94982496200931
Epoch (UTC): 24 February 2018 17:26:30
Eccentricity: 0.0030524
inclination: 97.9698°
perigee height: 561 km
apogee height: 603 km
right ascension of ascending node: 349.2484°
argument of perigee: 206.2522°
revolutions per day: 14.94982496
mean anomaly at epoch: 153.7144°
orbit number at epoch: 20093

The dashed part of the orbit path shows where the satellite is in the earth's shadow,  

DLR